Treasure Island

Pradip Chattopadhyay

(28.01.1961 / Kolkata)

Stats

» Click to list general statistics » OR, select a date :

General Statistics

Visitors of the poet

Number of visitors of the poet’s mainpage in PoemHunter.Com

Attention : Numbers in this table does not indicate the total hits of poems of the poet, but indicates the hits of the poet’s main page.

Date Hits
08/29/2014 Friday 564
100%
08/28/2014 Thursday 236
41%
08/27/2014 Wednesday 225
39%
08/26/2014 Tuesday 152
26%
08/25/2014 Monday 252
44%
08/24/2014 Sunday 345
61%
08/23/2014 Saturday 367
65%
08/22/2014 Friday 353
62%
08/21/2014 Thursday 203
35%
08/20/2014 Wednesday 225
39%
08/19/2014 Tuesday 144
25%
08/18/2014 Monday 161
28%
08/17/2014 Sunday 157
27%
08/16/2014 Saturday 276
48%
08/15/2014 Friday 230
40%
08/14/2014 Thursday 269
47%
08/13/2014 Wednesday 276
48%
08/12/2014 Tuesday 273
48%
08/11/2014 Monday 122
21%
08/10/2014 Sunday 87
15%

Reader rating & num.of MyPoemList’s

Click the captions of columns to change the order.

# Poem Title Submit Date Reader Rating Num.of MyPoemList’s
Rating Num.R.
1 i cant name that pain 08/30/2014 9.0 1 0
2 My crude attempt to assess her happiness 08/30/2014 -- 0 0
3 White House 08/29/2014 10.0 1 0
4 We're stuck in that place 08/28/2014 9.8 4 0
5 Precipice 08/27/2014 10.0 1 0
6 Faye 08/26/2014 10.0 1 0
7 The Ones You Love 08/25/2014 10.0 1 0
8 Honey Grove 08/25/2014 10.0 1 0
9 Matla River 08/24/2014 10.0 1 0
10 Three Coins For Her Love 08/23/2014 8.3 3 0
11 We are free 08/23/2014 10.0 1 0
12 Ask 08/22/2014 10.0 1 0
13 Untouched 08/21/2014 10.0 1 0
14 I wouldn't ask more 08/20/2014 10.0 1 0
15 She needs you to buy 08/20/2014 10.0 1 0
16 Rivals 08/20/2014 10.0 2 0
17 Borrowing from a dream 08/20/2014 10.0 1 0
18 You are needed 08/19/2014 10.0 1 0
19 First Lesson 08/18/2014 10.0 1 0
20 Even Though 08/18/2014 10.0 1 0
21 On an evening as this 08/16/2014 10.0 2 0
22 Graduation Class 08/16/2014 10.0 1 0
23 The man sitting next in the bus 08/15/2014 10.0 2 0
24 My 08/15/2014 -- 0 0
25 What folly drives me to 08/15/2014 -- 0 0
26 Leaf 08/15/2014 -- 0 0
27 Left to find the Right lane 08/14/2014 10.0 1 0
28 Not everything I can make into a poem 08/14/2014 9.0 2 0
29 Once and a lifetime 08/13/2014 10.0 1 0
30 Love's Alphabets 08/12/2014 10.0 1 0
31 Road Doggy 08/12/2014 10.0 1 0
32 The Croc 08/11/2014 10.0 1 0
33 A Gentleman's Guide to a Woman's Heart 08/11/2014 10.0 1 0
34 Snake Park 08/11/2014 10.0 1 0
35 For the times you will need them 08/10/2014 10.0 2 0
36 Count 08/10/2014 -- 0 0
37 Resting Noon Dream 08/09/2014 -- 0 0
38 Twilight Day 08/09/2014 10.0 1 0
39 Writing 08/09/2014 10.0 1 0
40 Prisoned in the August rain 08/08/2014 10.0 1 0
41 Sixteen 08/07/2014 10.0 1 0
42 What makes it? 08/07/2014 10.0 1 0
43 She's the Girl 08/06/2014 10.0 1 0
44 Inescapable 08/05/2014 10.0 1 0
45 A Kitten's Story 08/05/2014 10.0 2 0
46 Paddyfield 08/04/2014 10.0 1 0
47 Where winds the River 08/03/2014 10.0 1 0
48 Relationship 08/02/2014 -- 0 0
49 For You 08/02/2014 -- 0 0
50 Ross Island 08/02/2014 -- 0 0
51 I need her in my eyes 08/02/2014 10.0 1 0
52 House of Cards 08/01/2014 -- 0 0
53 Serves Right 07/31/2014 -- 0 0
54 Not A Big Deal 07/31/2014 10.0 1 0
55 I Believe 07/31/2014 -- 0 0
56 Reaching Her 07/31/2014 -- 0 0
57 The Witch 07/31/2014 -- 0 0
58 Wartime 07/31/2014 -- 0 0
59 Sometimes an hour 07/29/2014 -- 0 0
60 Resemblance 07/29/2014 10.0 1 0
61 On this rainy day 07/29/2014 10.0 1 0
62 Last Journey 07/28/2014 10.0 2 0
63 Wait n Watch 07/28/2014 10.0 1 0
64 Cloud Maker 07/28/2014 10.0 1 0
65 Lost Child 07/27/2014 10.0 1 0
66 Whiskey 07/26/2014 10.0 1 0
67 Hermit's Cat 07/26/2014 10.0 1 0
68 Dead than Alive 07/26/2014 -- 0 0
69 Devil Tree 07/26/2014 10.0 1 0
70 Owl-Moon Night & The Rickshaw-puller 07/25/2014 10.0 2 0
71 Love is a faith too 07/24/2014 10.0 1 0
72 When she could ask for sky 07/24/2014 10.0 1 0
73 The Master Innovator 07/24/2014 10.0 1 0
74 29 07/24/2014 -- 0 0
75 For some time 07/23/2014 10.0 1 0
76 if you ask me 07/22/2014 10.0 1 0
77 Too long, too short 07/22/2014 10.0 1 0
78 Highway Snippets: She slaps me a kiss 07/21/2014 -- 0 0
79 A Monkey on the Roof 07/19/2014 10.0 1 0
80 In the midst of life 07/19/2014 10.0 1 0
81 I cannot be as happy 07/18/2014 10.0 1 0
82 Fishwoman 07/18/2014 10.0 1 0
83 Scalpel Art 07/18/2014 -- 0 0
84 Fear of God 07/17/2014 10.0 1 0
85 Terracotta 07/17/2014 10.0 1 0
86 Miracle 07/16/2014 10.0 1 0
87 Not Everything 07/16/2014 10.0 1 0
88 Laminated 07/16/2014 10.0 1 0
89 Though 07/15/2014 10.0 1 0
90 That's all I know 07/15/2014 10.0 1 0
91 Sitting Duck 07/15/2014 -- 0 0
92 Enamored 07/15/2014 10.0 1 0
93 I was not that lucky 07/14/2014 10.0 1 0
94 Once In A Paradise 07/14/2014 10.0 1 0
95 Highway Snippets: Of Rainbows & Ruins 07/14/2014 10.0 1 0
96 For Life 07/14/2014 10.0 1 0
97 With fires in heaven 07/11/2014 9.5 2 0
98 The world is not in ruins 07/11/2014 10.0 1 0
99 The Dark Side of Moon 07/11/2014 10.0 1 0
100 Living Up To Love 07/10/2014 10.0 2 0
101 Two Sides 07/10/2014 10.0 1 0
102 The Gift 07/10/2014 10.0 1 0
103 Pages Left 07/09/2014 9.0 2 0
104 Refuge 07/08/2014 10.0 1 0
105 I Know Better 07/08/2014 9.0 1 0
106 Unposted 07/07/2014 10.0 1 0
107 7 July'14 07/07/2014 10.0 1 0
108 Of Our Free Will 07/07/2014 10.0 2 0
109 Thirty minutes together 07/07/2014 10.0 1 0
110 Sinner 07/07/2014 10.0 1 0
111 Horses 07/06/2014 10.0 2 0
112 Fortunate 07/04/2014 10.0 1 0
113 Why I Love You 07/04/2014 10.0 2 0
114 A poem walks with me 07/04/2014 10.0 1 0
115 ManyFace 07/04/2014 10.0 1 0
116 Lover's Park 07/03/2014 -- 0 0
117 Empty Home 07/03/2014 -- 0 0
118 Uncle Benu's Ghost 07/02/2014 10.0 1 0
119 I Live For Thee 07/02/2014 10.0 1 0
120 As a matter of fact 07/01/2014 10.0 1 0
121 Our world of prose 07/01/2014 10.0 1 0
122 Cadaver Store 07/01/2014 10.0 1 0
123 Drawing A Line 07/01/2014 10.0 1 0
124 You don't remind me 06/30/2014 10.0 1 0
125 On a December Night 06/30/2014 10.0 1 0
126 Cheshire Cat 06/30/2014 10.0 1 0
127 Angler 06/30/2014 10.0 2 0
128 Twilight 06/29/2014 10.0 1 0
129 With the bell 06/29/2014 10.0 1 0
130 A Week at this Inn 06/28/2014 10.0 1 0
131 Old Woman 06/27/2014 10.0 1 0
132 Predators 06/27/2014 10.0 1 0
133 Pariahs 06/27/2014 10.0 1 0
134 The Man Who Was Tuco 06/27/2014 10.0 1 0
135 The mind of now 06/27/2014 10.0 1 0
136 Inward 06/26/2014 10.0 1 0
137 Why Fillers? 06/26/2014 10.0 2 0
138 Inside 06/26/2014 10.0 1 0
139 be happy by 06/26/2014 10.0 1 0
140 About God 06/25/2014 10.0 1 0
141 Lament 06/25/2014 -- 0 0
142 Free Of Shame 06/25/2014 10.0 1 0
143 A Table & Two Chairs 06/25/2014 10.0 1 0
144 String Theory of Love 06/24/2014 10.0 1 0
145 Harbour 06/24/2014 -- 0 0
146 When you lose faith, remember 06/24/2014 -- 0 0
147 Of All The Days Countless 06/24/2014 -- 0 0
148 Waiter 06/23/2014 10.0 1 0
149 First Poem 06/23/2014 10.0 1 0
150 RiverBank 06/23/2014 10.0 1 0
151 Unwritten 06/23/2014 -- 0 0
152 Highway Snippets: 10x6 06/23/2014 10.0 1 0
153 And We Aren't Morons 06/21/2014 10.0 1 0
154 Spaceman 06/20/2014 10.0 1 1
155 Trauma 06/20/2014 -- 0 0
156 On the pond's ghat, alone 06/20/2014 10.0 1 0
157 What is it 06/20/2014 10.0 1 0
158 You breathe me life poet 06/20/2014 -- 0 0
159 Utility 06/19/2014 10.0 1 0
160 Eavesdropper 06/19/2014 10.0 1 0
161 Does One Need To Be A Very Good Man? 06/19/2014 10.0 1 0
162 Until She Told 06/18/2014 10.0 1 0
163 On The First Day Of Monsoon 06/18/2014 -- 0 0
164 Errand 06/17/2014 10.0 1 1
165 Give me if you have 06/17/2014 10.0 1 0
166 A Galaxy in Old Album 06/17/2014 10.0 1 0
167 Symbiosis 06/16/2014 -- 0 0
168 Clock 06/16/2014 10.0 1 0
169 Hate Game 06/16/2014 -- 0 1
170 Replica Of A Dream 06/16/2014 -- 0 0
171 Beyond Depression 06/16/2014 -- 0 0
172 Waves of Love 06/14/2014 10.0 1 0
173 Wealth behind his back 06/14/2014 -- 0 0
174 Thirty Minutes 06/14/2014 10.0 1 0
175 Poisoned 06/14/2014 10.0 1 0
176 When you are a poet 06/14/2014 -- 0 0
177 What we have done 06/14/2014 -- 0 0
178 Barefoot on the Grass 06/14/2014 10.0 1 1
179 From beyond waves' roar 06/13/2014 -- 0 0
180 Bad Friday 06/13/2014 -- 0 0
181 A Maid's Affair 06/13/2014 -- 0 0
182 Existence 06/12/2014 -- 0 0
183 Nameless 06/12/2014 -- 0 0
184 Haat 06/12/2014 -- 0 0
185 Geras 06/12/2014 10.0 1 0
186 Ungrateful 06/11/2014 -- 0 0
187 Beneath her parasol 06/11/2014 -- 0 0
188 like father, like son 06/10/2014 -- 0 0
189 Jungle Babbler 06/10/2014 -- 0 0
190 When find a part of you 06/10/2014 -- 0 0
191 Fragments of Poetry 06/09/2014 10.0 1 0
192 A wand to poke the clouds 06/09/2014 10.0 1 0
193 Today's Diary 06/09/2014 10.0 1 0
194 So little bared yet 06/08/2014 10.0 1 0
195 Without ever telling 06/08/2014 9.5 2 0
196 Small & Big 06/07/2014 -- 0 0
197 Nectarous 06/07/2014 -- 0 1
198 A Secret 06/07/2014 -- 0 0
199 Songs of the Old Gardener 06/06/2014 -- 0 0
200 Agreement 06/06/2014 10.0 1 0
201 Two Lovers & A City 06/06/2014 10.0 1 0
202 Let there be light 06/05/2014 -- 0 0
203 Call it by any name 06/05/2014 10.0 1 0
204 A Requiem For June 06/05/2014 10.0 1 0
205 For us bred 06/05/2014 10.0 1 0
206 Gift 06/04/2014 10.0 1 0
207 That summer night in a dungeon 06/04/2014 10.0 1 0
208 Rhymes of Football 06/03/2014 6.0 1 0
209 A Few Seasons 06/03/2014 8.5 2 0
210 Of Shame She Dies 06/03/2014 10.0 1 0
211 One Stop Shop 06/03/2014 10.0 1 0
212 Her Offer 06/03/2014 10.0 1 0
213 Ma 06/02/2014 10.0 1 0
214 Bansharee 06/01/2014 -- 0 0
215 yet we breathe 05/31/2014 -- 0 0
216 When you need it most 05/31/2014 -- 0 0
217 Logic 05/31/2014 -- 0 0
218 Belief & Coincidence 05/31/2014 -- 0 0
219 Washerwoman 05/30/2014 10.0 2 0
220 I beg a poem in my head 05/30/2014 10.0 1 0
221 Homing Bird 05/29/2014 10.0 1 0
222 She comes to my mind 05/29/2014 10.0 1 0
223 Depletion 05/28/2014 10.0 1 0
224 Today is the Time 05/28/2014 10.0 1 0
225 From Me to Me 05/28/2014 10.0 1 0
226 A Summer Day at the Zoo 05/28/2014 10.0 1 0
227 Home 05/28/2014 -- 0 0
228 Ghost Story 05/27/2014 -- 0 0
229 A Murder 05/27/2014 -- 0 0
230 Ganga 05/26/2014 10.0 2 0
231 Keeping a Promise 05/26/2014 10.0 1 0
232 Metamorphosis 05/25/2014 10.0 1 0
233 Way to go 05/25/2014 10.0 1 0
234 Inevitable 05/24/2014 10.0 1 0
235 Where love her eyes still speak 05/24/2014 10.0 1 0
236 The Known Happiness 05/24/2014 10.0 1 0
237 Animate Inanimate 05/24/2014 10.0 1 0
238 Broken Leg Jackdaw 05/23/2014 10.0 1 0
239 Crab Passions 05/23/2014 -- 0 0
240 Asking For Too Much 05/23/2014 9.5 2 0
241 She Will Never Know 05/22/2014 10.0 3 0
242 Fate Of Poems 05/22/2014 -- 0 0
243 Gathering Her 05/22/2014 10.0 1 0
244 One hop and a grain 05/21/2014 10.0 1 0
245 One Chance To Be Brave 05/21/2014 -- 0 0
246 The Stubborn Lover 05/21/2014 10.0 1 0
247 In I Read You 05/20/2014 6.5 2 0
248 Justice 05/20/2014 10.0 1 0
249 When Morning Goes Sour 05/20/2014 -- 0 0
250 Oval Nuggets 05/19/2014 -- 0 1
251 Bone 05/19/2014 10.0 1 0
252 Her Lessons 05/19/2014 10.0 2 0
253 The Dancing Peacock 05/18/2014 10.0 1 0
254 One Poem 05/18/2014 10.0 1 0
255 Hayman 05/17/2014 10.0 1 0
256 Merciful 05/17/2014 10.0 1 0
257 Times Once Lived 05/16/2014 10.0 1 0
258 Quicksand 05/16/2014 10.0 2 0
259 For Those Who Leave Sooner 05/16/2014 6.0 3 0
260 One Last Tide 05/16/2014 6.0 1 0
261 In Your Prayers 05/15/2014 10.0 1 1
262 When my belief is deluged 05/15/2014 10.0 1 0
263 Past bricks and weeds 05/14/2014 10.0 1 0
264 Why 05/14/2014 -- 0 0
265 Pavlov's Reflex 05/13/2014 -- 0 0
266 His Wisdom 05/13/2014 -- 0 0
267 Drongos & I 05/13/2014 -- 0 0
268 if just for once 05/12/2014 10.0 1 0
269 The Teaseller 05/12/2014 10.0 1 0
270 6 highway snippets (3x6) 05/11/2014 10.0 1 0
271 Life's Plan 05/10/2014 10.0 3 0
272 Disconnect 05/10/2014 10.0 2 1
273 I know *it*, so do You 05/10/2014 10.0 1 0
274 When I can see night's bones 05/10/2014 10.0 1 0
275 We 05/09/2014 10.0 1 0
276 An Artless Girl 05/09/2014 10.0 1 0
277 When she's not there 05/09/2014 10.0 1 0
278 Tagore 05/09/2014 10.0 1 0
279 Lost in Translation 05/08/2014 10.0 1 0
280 Not A Love Poem: A Confession 05/08/2014 10.0 1 0
281 When It's Not Your Day 05/08/2014 10.0 1 0
282 Perfection 05/07/2014 10.0 1 0
283 If you are with me 05/07/2014 10.0 1 0
284 White Dots 05/06/2014 10.0 1 0
285 I'm Still In Love With You 05/06/2014 10.0 1 0
286 In her garden of temptation 05/05/2014 10.0 1 0
287 Why Still 05/05/2014 10.0 1 0
288 Lumps 05/05/2014 10.0 1 0
289 Timely Untimely 05/04/2014 9.0 1 0
290 Do than Say 05/04/2014 10.0 1 0
291 Without a Note 05/04/2014 -- 0 0
292 Borrow a day 05/03/2014 -- 0 0
293 Bitter Truth 05/03/2014 -- 0 0
294 The Unsure Man 05/03/2014 10.0 1 0
295 Rainbow Land 05/02/2014 -- 0 0
296 Don't ask me how 05/01/2014 8.0 1 0
297 I visit that place often 05/01/2014 10.0 1 0
298 Just When 05/01/2014 10.0 1 0
299 Reflection 04/30/2014 -- 0 0
300 In Flight 04/30/2014 -- 0 0
301 The dog lifts my spirit 04/29/2014 10.0 2 0
302 The Last Hut 04/29/2014 10.0 1 0
303 In the lone night's shadow 04/28/2014 10.0 1 0
304 Traveler's Malady 04/28/2014 -- 0 0
305 On My Shoulder 04/28/2014 9.0 2 0
306 An Errand 04/26/2014 -- 0 0
307 Imperfection 04/25/2014 10.0 1 0
308 Stepping out of me 04/25/2014 10.0 2 0
309 Her Beauty 04/25/2014 10.0 1 0
310 Another day of loving her 04/24/2014 10.0 1 0
311 As we will it 04/24/2014 9.5 2 0
312 Lapis Lazuli 04/23/2014 10.0 2 0
313 The Scribe 04/22/2014 5.0 1 0
314 Outcome 04/22/2014 -- 0 0
315 River Poet: A Wish 04/22/2014 10.0 2 0
316 Believe It Or Not 04/22/2014 5.0 1 0
317 Chocolate 04/21/2014 10.0 1 0
318 Books Are 04/21/2014 10.0 1 0
319 Finding God 04/21/2014 6.0 3 0
320 Sight 04/20/2014 10.0 1 0
321 What Not To Want 04/20/2014 10.0 1 0
322 Defiance 04/20/2014 7.5 2 0
323 Ego 04/18/2014 10.0 1 0
324 Faith 04/18/2014 10.0 2 0
325 Ants 04/17/2014 10.0 1 0
326 The Ghost Of The Jilted Lover 04/17/2014 10.0 1 0
327 Make-Believe Mood 04/17/2014 10.0 1 0
328 A Day's Yield 04/17/2014 10.0 1 0
329 Either Way 04/16/2014 5.0 1 0
330 He Cries Like A Baby 04/16/2014 -- 0 0
331 Can someone tell me 04/16/2014 7.5 2 0
332 She Leaves A Scent For Me 04/14/2014 10.0 1 0
333 A Delayed Confession 04/14/2014 10.0 1 0
334 When A Poem Is Done 04/13/2014 10.0 2 0
335 Uncle Peter 04/13/2014 10.0 1 0
336 Trait 04/12/2014 10.0 1 0
337 Tin Box Man 04/12/2014 10.0 1 0
338 A Morsel 04/11/2014 8.0 2 0
339 Ahimsa 04/11/2014 10.0 1 0
340 Even when we break 04/11/2014 7.0 1 0
341 The Islander 04/10/2014 10.0 1 0
342 When It Happens 04/10/2014 7.5 2 0
343 Life Cycle 04/09/2014 10.0 1 0
344 I 04/09/2014 -- 0 0
345 Passing Shadows 04/08/2014 10.0 1 0
346 Childhood Lane 04/08/2014 10.0 1 0
347 When I Reside In My Poem 04/08/2014 10.0 2 0
348 Grit 04/07/2014 -- 0 0
349 When At The Shower 04/07/2014 -- 0 0
350 Seashells 04/07/2014 10.0 2 0
351 Love is such a strange affair 04/05/2014 -- 0 0
352 Friend 04/04/2014 10.0 3 0
353 A Monk & Two Men 04/04/2014 -- 0 0
354 Shelved 04/03/2014 -- 0 0
355 Part Eaten 04/03/2014 9.0 1 0
356 Notebook 04/03/2014 7.0 2 0
357 3: 45 04/02/2014 10.0 2 0
358 Odd Bird Out 04/02/2014 10.0 2 0
359 To all Poets writing hourly poem 04/02/2014 10.0 1 0
360 Dumber 04/02/2014 -- 0 0
361 Less than More 04/01/2014 -- 0 0
362 Not all men are poets 04/01/2014 -- 0 0
363 The Wayfarer 04/01/2014 -- 0 0
364 The Other Side Of Truth 04/01/2014 -- 0 0
365 In The Hall Of Doom 04/01/2014 -- 0 0
366 When Broken 04/01/2014 -- 0 0
367 Beneath the Bullet Wood Tree 03/31/2014 -- 0 0
368 Wasp's Wings 03/31/2014 -- 0 0
369 Hey Girl 03/31/2014 -- 0 0
370 Rubber Band 03/30/2014 10.0 1 0
371 My Woman 03/29/2014 10.0 1 1
372 Grass Cutters 03/29/2014 -- 0 0
373 Fullness 03/28/2014 10.0 1 0
374 That's when he gave up his pen 03/28/2014 -- 0 0
375 Qualms 03/28/2014 7.0 1 0
376 Affair 03/28/2014 10.0 2 1
377 Myth 03/28/2014 7.0 1 0
378 Moon Stalker 03/27/2014 9.5 2 0
379 Before They Aren't There 03/27/2014 10.0 1 0
380 Seed of Beauty 03/26/2014 9.0 2 0
381 Pause 03/26/2014 -- 0 0
382 River Poet 03/26/2014 10.0 2 0
383 First Rain 03/25/2014 7.0 2 0
384 Exactly 03/25/2014 10.0 1 0
385 Too Good Too Long 03/25/2014 10.0 1 0
386 When I Shooed the Cat 03/25/2014 10.0 2 0
387 Sunflower 03/24/2014 10.0 1 0
388 When a Stranger 03/24/2014 -- 0 0
389 Beneath An Acacia 03/24/2014 -- 0 0
390 Dead Sea 03/22/2014 -- 0 0
391 Borrowers 03/22/2014 -- 0 0
392 Honesty 03/22/2014 -- 0 0
393 One to Ten 03/22/2014 9.0 1 0
394 The Poet's Reward 03/22/2014 9.0 2 0
395 Be Once A Bird 03/21/2014 -- 0 0
396 Bother Not 03/21/2014 -- 0 0
397 Remember Me Sweet Bird 03/21/2014 -- 0 0
398 Why Dark Poems I Don't Write 03/21/2014 -- 0 0
399 A Poet and His Muse 03/20/2014 -- 0 0
400 Trinkets & Toys 03/20/2014 -- 0 0
401 Keeping A Promise On A March Afternoon 03/20/2014 -- 0 0
402 Definable 03/19/2014 -- 0 0
403 The Tribe of Poets 03/19/2014 -- 0 0
404 The Loser 03/19/2014 -- 0 0
405 Not All Is Lost 03/18/2014 -- 0 0
406 Sugar Man 03/18/2014 -- 0 0
407 Deemed Bounty 03/18/2014 -- 0 0
408 Christo Mandir 03/18/2014 -- 0 0
409 Drongo 03/16/2014 -- 0 0
410 Spring Fires 03/16/2014 10.0 1 0
411 There's Nothing We Really Need 03/15/2014 -- 0 0
412 Tell Me How It Happens 03/15/2014 -- 0 0
413 You Didn't Foresee 03/15/2014 10.0 1 0
414 For the Love Of 03/15/2014 -- 0 0
415 Angelic Wisdom 03/14/2014 -- 0 0
416 From Her Queendom 03/14/2014 -- 0 0
417 Need & Urge 03/14/2014 -- 0 0
418 A Room of Memory 03/13/2014 10.0 1 1
419 On Your Poems I Linger 03/13/2014 -- 0 0
420 I Shouldn't Be Eying Her 03/13/2014 10.0 1 0
421 Boundary Wall 03/12/2014 10.0 1 0
422 It's So Made 03/11/2014 -- 0 0
423 Harwood 03/11/2014 -- 0 0
424 Vanquished 03/11/2014 -- 0 0
425 It Starts When 03/10/2014 5.0 1 0
426 If You Have To 03/10/2014 -- 0 0
427 A Day's Journey With Her 03/10/2014 -- 0 0
428 An Hour in March 03/08/2014 -- 0 0
429 Colors of Wait 03/08/2014 -- 0 0
430 Target 03/07/2014 10.0 1 0
431 Her Night 03/07/2014 10.0 1 0
432 Chance 03/06/2014 10.0 2 0
433 One Audience 03/06/2014 -- 0 0
434 A Love Poem 03/05/2014 -- 0 0
435 On Her 03/05/2014 10.0 1 0
436 Law of Proximity 03/05/2014 8.0 1 0
437 Plea 03/04/2014 10.0 1 0
438 Groove 03/04/2014 10.0 1 0
439 My Sketchbook 03/04/2014 10.0 1 0
440 Lessons From The Miser 03/04/2014 -- 0 0
441 Antithesis 03/03/2014 -- 0 0
442 One Minute 03/03/2014 10.0 2 0
443 Seven Trees 03/03/2014 10.0 1 0
444 I Do Love Saturdays 03/01/2014 10.0 1 0
445 One Hour 03/01/2014 10.0 2 0
446 Escapes 02/28/2014 10.0 1 0
447 Fighter 02/28/2014 10.0 1 0
448 Disenchantment 02/28/2014 -- 0 0
449 Mirage 02/27/2014 10.0 1 0
450 Magpie Robin: What She's Hungry For 02/27/2014 10.0 2 0
451 It's only today 02/27/2014 10.0 1 0
452 Inscrutable 02/26/2014 10.0 1 0
453 My Grand Old Dame 02/25/2014 9.0 2 0
454 In Between 02/25/2014 10.0 1 0
455 Now That I'm Growing Young 02/24/2014 10.0 1 0
456 Ripeness 02/24/2014 -- 0 0
457 Bumper Yield 02/24/2014 10.0 1 0
458 Disaster 02/22/2014 9.0 2 0
459 A loss to gain 02/21/2014 -- 0 0
460 Up for Sale 02/21/2014 10.0 2 0
461 You and I together 02/21/2014 10.0 1 0
462 White Clouds 02/20/2014 10.0 1 0
463 Playful 02/20/2014 10.0 1 0
464 His Pace 02/20/2014 10.0 1 0
465 Wheelchair 02/19/2014 10.0 1 0
466 Sole Mate 02/19/2014 -- 0 0
467 One Great Discovery 02/19/2014 -- 0 0
468 Long & Short 02/19/2014 -- 0 0
469 Streak Of A Kiss 02/19/2014 -- 0 0
470 I have to own 02/18/2014 10.0 1 0
471 Desire 02/18/2014 10.0 1 0
472 Born Loser 02/18/2014 -- 0 0
473 Father and Son 02/18/2014 5.5 2 0
474 If You Have To Go To The Beach 02/17/2014 10.0 3 0
475 Golden Potato 02/17/2014 10.0 1 0
476 A tear or two 02/16/2014 10.0 2 0
477 On a rainy evening 02/16/2014 10.0 1 0
478 Must Write Now 02/15/2014 10.0 1 0
479 The Gardener 02/15/2014 10.0 1 0
480 Meter Reader 02/15/2014 10.0 1 0
481 The Abhorred 02/14/2014 10.0 2 0
482 Lunchbox 02/14/2014 -- 0 0
483 Habit 02/14/2014 10.0 1 0
484 Three Hard Weeks 02/14/2014 -- 0 0
485 Last but not the Least 02/13/2014 -- 0 0
486 Frazer 02/12/2014 10.0 1 0
487 Seven Seas 02/12/2014 10.0 1 0
488 Incomplete 02/11/2014 10.0 1 0
489 Astray 02/11/2014 10.0 1 0
490 Rules of Thumb 02/11/2014 10.0 1 0
491 Finding Home 02/10/2014 10.0 1 0
492 Summer Noon 02/10/2014 10.0 1 0
493 Scar 02/08/2014 -- 0 0
494 Inheritance 02/08/2014 -- 0 0
495 At Her Expense 02/08/2014 -- 0 0
496 Flight 02/08/2014 10.0 1 0
497 Writer's Block? 02/08/2014 -- 0 0
498 Because They Bother: Scraps of Worries 02/07/2014 10.0 1 0
499 Convicted 02/07/2014 10.0 2 0
500 Ink 02/06/2014 10.0 1 0
501 Living God 02/06/2014 10.0 1 0
502 Unseasonal 02/05/2014 10.0 2 0
503 Eagle's Height 02/04/2014 10.0 1 0
504 Twenty in Twenty 02/03/2014 -- 0 0
505 Lazy Bones 02/03/2014 -- 0 0
506 Better Not 02/03/2014 10.0 1 0
507 Tell You the Truth 02/03/2014 10.0 1 0
508 Stealer 02/02/2014 10.0 1 0
509 Sneeze Poem 02/01/2014 10.0 1 0
510 Permissive (10w) 02/01/2014 9.0 2 0
511 Her Lot 02/01/2014 9.5 2 0
512 I'm now going to hear you 01/31/2014 10.0 1 0
513 Mustard Field 01/31/2014 10.0 1 0
514 how it's so 01/30/2014 10.0 2 0
515 Who Is The Pauper? 01/30/2014 10.0 2 0
516 Indeterminable 01/29/2014 10.0 2 0
517 On This Day 01/28/2014 8.8 4 0
518 Two Penny 01/28/2014 -- 0 0
519 Someone You 01/27/2014 7.7 3 0
520 Smell of Last Rain 01/24/2014 9.5 2 0
521 Times in her wings 01/24/2014 10.0 1 0
522 Time & She 01/22/2014 9.0 2 0
523 The Fifth Man 01/22/2014 10.0 1 0
524 Phantom's Opera 01/21/2014 10.0 1 0
525 Intruder 01/20/2014 10.0 1 0
526 The Intrusion 01/20/2014 -- 0 0
527 The Intruder 01/20/2014 -- 0 0
528 Homemade 01/20/2014 10.0 1 1
529 Purpose 01/20/2014 -- 0 0
530 Unfinished 01/18/2014 8.0 1 0
531 Come Saturdays 01/18/2014 10.0 1 0
532 How Long Is Life 01/18/2014 10.0 1 0
533 Whatever Happens 01/18/2014 10.0 1 0
534 Real Dangers 01/17/2014 10.0 1 0
535 How Does It Matter 01/16/2014 10.0 1 0
536 For Tomorrow 01/16/2014 10.0 1 0
537 Foretell 01/15/2014 10.0 1 0
538 How You Know 01/15/2014 10.0 2 0
539 Best Poems 01/14/2014 9.5 2 0
540 Sympathy 01/14/2014 10.0 1 0
541 Unmindful 01/14/2014 10.0 1 0
542 Let It Not Die 01/13/2014 10.0 1 0
543 Papyrus 01/13/2014 10.0 1 0
544 Two Sweet Words 01/13/2014 10.0 1 0
545 Robbers (10w) 01/11/2014 -- 0 0
546 Bonhomie 01/11/2014 10.0 1 0
547 Walking The Night 01/10/2014 10.0 2 0
548 Right Under Your Nose 01/10/2014 10.0 1 0
549 A Man of Words 01/09/2014 10.0 1 0
550 Love's Fantasies 01/08/2014 10.0 1 0
551 The Cellar 01/08/2014 10.0 1 0
552 Hair 01/07/2014 10.0 1 0
553 Simple 01/07/2014 9.5 2 0
554 Rest in Heaven 01/07/2014 10.0 2 1
555 A Perfect Mate 01/06/2014 10.0 2 0
556 Lying in Wait 01/06/2014 10.0 4 0
557 Passing Sigh 01/04/2014 10.0 1 0
558 The Ones Left 01/04/2014 10.0 1 0
559 A Good Bargain 01/04/2014 -- 0 0
560 Primates 01/03/2014 10.0 1 0
561 Freedom (8w) 01/03/2014 8.0 1 0
562 Rush Hour 01/03/2014 -- 0 0
563 Ten Birds & Another 01/02/2014 10.0 1 0
564 A year Older, A Year Wiser 01/02/2014 10.0 2 0
565 A Year Older 01/02/2014 10.0 1 0
566 Enough If 12/31/2013 10.0 1 0
567 A Frail Woman 12/31/2013 10.0 1 0
568 As Promised 12/30/2013 10.0 1 0
569 Moonbeam 12/30/2013 8.0 2 0
570 Mist 12/29/2013 -- 0 0
571 Shadows 12/28/2013 10.0 1 0
572 Recipes 12/28/2013 10.0 1 0
573 Demolition 12/28/2013 -- 0 0
574 No Small Price 12/26/2013 10.0 1 0
575 Make Believe 12/26/2013 6.3 3 0
576 Love's Uncertainty Principle 12/26/2013 10.0 1 0
577 In Her Image 12/26/2013 10.0 1 0
578 This Christmas Night 12/25/2013 10.0 1 0
579 His Way 12/24/2013 -- 0 0
580 Still, Merry Christmas! 12/24/2013 10.0 1 0
581 Fire 12/23/2013 9.0 1 0
582 Do They? 12/23/2013 9.0 1 0
583 Emlan 12/22/2013 -- 0 0
584 Walls 12/21/2013 10.0 1 0
585 Mistakes 12/21/2013 10.0 1 0
586 My Fear Of 12/21/2013 10.0 1 0
587 Tell Me What is That: A Non-sane's Rhyme 12/21/2013 -- 0 0
588 I would live for another day 12/20/2013 10.0 2 0
589 Sandbar 12/20/2013 10.0 1 0
590 Wooden Smiles 12/19/2013 10.0 1 0
591 Quick Heal (10w) 12/19/2013 -- 0 0
592 Paradox (10w) 12/19/2013 -- 0 0
593 Grey Shades of Evening 12/18/2013 -- 0 0
594 The Wife of Seven Husbands 12/18/2013 -- 0 0
595 Reach 12/17/2013 -- 0 0
596 The Cross 12/17/2013 10.0 2 0
597 Just a Kid 12/16/2013 -- 0 0
598 Haunting 12/16/2013 -- 0 0
599 Only the cloud was knowing 12/14/2013 10.0 1 0
600 The Way You Want Me 12/14/2013 10.0 1 0
601 Black Bureau 12/13/2013 10.0 1 0
602 What Was Once Boasted 12/13/2013 10.0 1 0
603 Still You Love 12/12/2013 10.0 1 0
604 An old story retold 12/12/2013 -- 0 0
605 Palm Reader 12/12/2013 -- 0 0
606 The Stranglers 12/11/2013 -- 0 0
607 11/12/13 12/11/2013 10.0 1 0
608 Black and White and in between 12/11/2013 -- 0 0
609 Class Apart 12/11/2013 -- 0 0
610 Mystery Of The Missing Mobile 12/10/2013 10.0 1 0
611 Savage 12/10/2013 -- 0 0
612 Living For 12/10/2013 10.0 1 0
613 Unrelenting 12/10/2013 10.0 1 0
614 Untaxed 12/09/2013 -- 0 0
615 Confinement 12/09/2013 5.5 2 0
616 Choice 12/07/2013 10.0 1 0
617 One Last Time 12/07/2013 9.0 2 0
618 Tomorrow 12/07/2013 10.0 1 0
619 Impact (10w) 12/06/2013 -- 0 0
620 Teatime Story 12/06/2013 10.0 1 0
621 Goodness 12/06/2013 -- 0 0
622 A River of Tears 12/05/2013 10.0 1 0
623 A Piece of Dupleix 12/04/2013 10.0 1 0
624 Night Traveler 12/04/2013 10.0 1 0
625 Nonsense (10w) 12/03/2013 8.0 1 0
626 Romance 12/03/2013 10.0 2 0
627 Washerman 12/03/2013 -- 0 0
628 Other Side Of Moon 12/03/2013 -- 0 0
629 An Apology 12/03/2013 -- 0 0
630 Secret Joy 12/02/2013 10.0 1 0
631 Green Coconut 12/02/2013 10.0 1 0
632 You too 12/02/2013 10.0 1 0
633 On the Last Day 11/30/2013 7.0 3 0
634 On the Roof 11/30/2013 10.0 1 0
635 Company 11/30/2013 10.0 1 0
636 Summon 11/29/2013 10.0 1 0
637 Wild Run 11/29/2013 10.0 1 0
638 Honey Gatherer 11/29/2013 10.0 1 0
639 Vow 11/28/2013 -- 0 0
640 Is there anybody there? 11/28/2013 10.0 1 0
641 Shortcut 11/27/2013 10.0 1 0
642 Renewal 11/27/2013 -- 0 0
643 Every time you light up 11/27/2013 -- 0 0
644 Out In The Cold 11/26/2013 -- 0 0
645 Taste Of Love 11/26/2013 -- 0 0
646 Sweet Fragrance 11/26/2013 -- 0 0
647 Lonely Hearts 11/26/2013 -- 0 0
648 Last Laugh 11/25/2013 -- 0 0
649 Day for Night 11/25/2013 -- 0 0
650 Silver Lining 11/25/2013 -- 0 0
651 Migrants 11/25/2013 -- 0 0
652 One Way 11/24/2013 -- 0 0
653 Aroma Of Food 11/24/2013 9.0 1 0
654 Beg one from you 11/23/2013 -- 0 0
655 The last post before the sea 11/23/2013 10.0 1 0
656 Shoes & Morals 11/23/2013 10.0 1 0
657 Drunken Night 11/22/2013 -- 0 0
658 Healing Time 11/22/2013 -- 0 0
659 The Killer 11/21/2013 -- 0 0
660 Frankly Speaking 11/21/2013 -- 0 0
661 Wolf Pup 11/21/2013 -- 0 0
662 Beyond the Last Turn 11/21/2013 -- 0 0
663 Lemon Pickle 11/20/2013 10.0 2 0
664 The Decreed 11/20/2013 10.0 1 0
665 Humannequin 11/20/2013 -- 0 0
666 Regret 11/19/2013 10.0 1 0
667 Smile's Labor 11/19/2013 -- 0 0
668 Livelihood 11/18/2013 -- 0 0
669 Finding Me 11/18/2013 -- 0 0
670 Sin 11/18/2013 -- 0 0
671 You Trusted (10w) 11/18/2013 -- 0 0
672 Remedy 11/18/2013 -- 0 0
673 Lion 11/18/2013 -- 0 0
674 She's Mine 11/17/2013 -- 0 0
675 From Last Winter 11/16/2013 -- 0 0
676 Marigold 11/15/2013 -- 0 0
677 Weed Flower 11/15/2013 -- 0 0
678 Wheels of Progress 11/15/2013 -- 0 0
679 Summer's Brew 11/14/2013 -- 0 0
680 How do you do 11/14/2013 10.0 1 0
681 Kite Flyer 11/13/2013 10.0 1 0
682 Duck Feather 11/13/2013 -- 0 0
683 Passerby 11/12/2013 -- 0 0
684 The answer is nay...and yea 11/11/2013 10.0 1 0
685 Success (10w) 11/11/2013 -- 0 0
686 Yogi 11/11/2013 -- 0 0
687 30 Years 11/09/2013 10.0 1 1
688 Broken 11/09/2013 9.0 1 0
689 It's like that always: a true story 11/09/2013 -- 0 0
690 Dried Leaves and A Spark: Revisited 11/09/2013 -- 0 0
691 Dried Leaves and a Spark 11/09/2013 5.0 1 0
692 My Home Is Not Forest 11/08/2013 -- 0 0
693 My Abode 11/08/2013 -- 0 0
694 Mind Water 2 11/07/2013 -- 0 0
695 Mind Water 11/07/2013 10.0 1 0
696 3 Mice On The Tin Roof 11/06/2013 10.0 1 0
697 Wrong Address 11/06/2013 10.0 1 0
698 Mom's Birthday 11/06/2013 -- 0 0
699 Second Coming 11/06/2013 -- 0 0
700 On the Divan Divine 11/05/2013 -- 0 0
701 The Roadside Tap 11/05/2013 9.0 1 0
702 End of Night 11/05/2013 10.0 1 0
703 A Wish for Her Brother 11/04/2013 -- 0 0
704 Crime and Clime 11/04/2013 10.0 2 0
705 One Sleepy Sunday Afternoon 11/04/2013 -- 0 0
706 Upstairs 11/02/2013 10.0 1 0
707 When I ask myself 11/02/2013 -- 0 0
708 A Bird A Hidden Bard 11/02/2013 10.0 2 0
709 Caught in the Web 11/02/2013 9.0 1 0
710 December 11/01/2013 10.0 1 0
711 The Shadow on the Window 10/31/2013 10.0 1 0
712 Love Lane 10/31/2013 -- 0 0
713 Gallantry 10/31/2013 10.0 1 0
714 They Leave At Dawn 10/30/2013 10.0 1 0
715 Kid Man 10/29/2013 10.0 1 0
716 Bare Truth 10/29/2013 9.0 1 0
717 On The Way 10/28/2013 -- 0 0
718 That Afternoon 10/28/2013 10.0 1 0
719 Aftermath 10/28/2013 -- 0 0
720 Your Finest Poetry 10/27/2013 -- 0 0
721 Warm Bed Blanket 10/27/2013 -- 0 0
722 For The Grace Of Your Words 10/26/2013 10.0 1 0
723 A House Is Not 10/26/2013 8.5 2 0
724 Rain Seeds 10/26/2013 9.0 2 0
725 The Tap 10/25/2013 9.0 2 0
726 Pair (10w) 10/25/2013 -- 0 0
727 Blessing in Disguise 10/24/2013 10.0 1 0
728 Moondust 10/24/2013 10.0 1 0
729 Trail 10/24/2013 10.0 1 0
730 Rocky Woman 10/23/2013 10.0 1 0
731 Tenant 10/23/2013 -- 0 0
732 An Apple A Day 10/22/2013 10.0 3 0
733 Notes of the Night 10/22/2013 -- 0 0
734 Buried Treasure 10/22/2013 9.0 1 0
735 Aberration 10/21/2013 -- 0 0
736 Aspirant 10/20/2013 -- 0 0
737 Sweet Seller 10/20/2013 9.0 1 0
738 Goddess 10/20/2013 -- 0 0
739 Dog Sleep 10/19/2013 -- 0 0
740 When is Halloween 10/18/2013 -- 0 0
741 Mellowed Sun 10/18/2013 -- 0 0
742 The Fallen 10/17/2013 -- 0 0
743 Deity 10/17/2013 10.0 1 0
744 Promise (10w) 10/16/2013 10.0 1 0
745 Tea Time 10/16/2013 -- 0 0
746 Playing in the Rain 10/15/2013 10.0 1 0
747 4 Letters 10/15/2013 10.0 2 1
748 If it's so asked 10/13/2013 -- 0 0
749 Moonlight Sonata 10/13/2013 -- 0 0
750 Headache 10/12/2013 10.0 1 0
751 A room without a view 10/11/2013 -- 0 0
752 Mysteries of the Wild 10/10/2013 -- 0 0
753 Signs 10/10/2013 -- 0 0
754 Celebrating Death 10/09/2013 -- 0 0
755 If I Share Them 10/09/2013 10.0 1 0
756 Misfortune 10/08/2013 -- 0 0
757 Clock Tower 10/07/2013 10.0 1 0
758 Mission (10w) 10/07/2013 10.0 1 0
759 Rain Men 10/06/2013 -- 0 0
760 War 10/05/2013 -- 0 0
761 On the Road 10/05/2013 10.0 1 0
762 Savior 10/05/2013 -- 0 0
763 Issues (6w) 10/05/2013 -- 0 0
764 Losing Address 10/05/2013 -- 0 0
765 Morning Dew 10/05/2013 -- 0 0
766 Multitasking 10/03/2013 10.0 1 0
767 Ways You Do It 10/03/2013 3.0 1 0
768 3 Miserly Men 10/02/2013 10.0 2 0
769 Laugh Maker 10/02/2013 -- 0 0
770 Only Yours 10/02/2013 9.0 1 0
771 Where Love Shelters 2 10/01/2013 7.5 2 0
772 Occupation 09/30/2013 10.0 2 0
773 Duality 09/30/2013 10.0 2 0
774 At the Doctor's 09/29/2013 -- 0 0
775 Bed 223 09/28/2013 -- 0 0
776 Bondage (10w) 09/28/2013 -- 0 0
777 Where Love Shelters 09/28/2013 10.0 1 0
778 Popcorn 09/24/2013 -- 0 0
779 Drunken River 09/24/2013 10.0 1 0
780 Crossroad 09/23/2013 -- 0 0
781 Shades of Pain 09/22/2013 10.0 1 0
782 2 Lovers 09/21/2013 10.0 3 1
783 Spill 09/21/2013 9.3 4 0
784 Destination: Planet IV 09/20/2013 -- 0 0
785 An Artist 09/20/2013 10.0 2 0
786 Work (10w) 09/19/2013 -- 0 0
787 Hopeful (10w) 09/19/2013 -- 0 0
788 In the Land of the Dead (A Dream) 09/19/2013 -- 0 0
789 Love's Sweet Disguise 09/18/2013 10.0 2 0
790 When it Dawned 09/18/2013 -- 0 0
791 Quill 09/18/2013 -- 0 0
792 Jurassic Park 09/17/2013 -- 0 0
793 A Digression 09/16/2013 7.0 2 0
794 Freedom 09/16/2013 -- 0 0
795 Fret Not (10w) 09/15/2013 10.0 1 0
796 So be it 09/15/2013 -- 0 0
797 The Hooded Horseman 09/15/2013 -- 0 0
798 Wild Waste 09/14/2013 10.0 1 0
799 An Accident 09/14/2013 -- 0 0
800 Trust (10w) 09/14/2013 -- 0 0
801 Enduring Love (10w) 09/13/2013 -- 0 0
802 Habits (10w) 09/13/2013 -- 0 0
803 The Luna(r) tic (Top Hill 2) 09/13/2013 -- 0 0
804 Passage (10w) 09/12/2013 7.0 1 0
805 Tomorrow Is A Day Away 09/12/2013 -- 0 0
806 Parrot Care 09/11/2013 9.0 2 0
807 Hymen (10w) 09/11/2013 -- 0 0
808 Term (10w) 09/11/2013 -- 0 0
809 Lost Thread 09/11/2013 6.0 1 0
810 They feed on my Fears 09/11/2013 -- 0 0
811 Shopkeeper 09/11/2013 8.5 2 0
812 'You' In The Rain 09/10/2013 -- 0 0
813 Competition (10w) 09/10/2013 -- 0 0
814 Painless (10w) 09/10/2013 3.0 1 0
815 The Photographer 09/10/2013 10.0 1 0
816 Windfall 09/10/2013 10.0 1 0
817 My Daisy 09/09/2013 -- 0 0
818 Heeramon 09/09/2013 -- 0 0
819 Lost at Dawn 09/09/2013 10.0 1 0
820 Hunter 09/08/2013 10.0 1 0
821 Vain 09/07/2013 10.0 2 0
822 Though we parted 09/06/2013 10.0 1 0
823 Realm of Possibility 09/06/2013 10.0 1 0
824 Killers 09/05/2013 10.0 1 0
825 Your Teacher 09/05/2013 -- 0 0
826 Old Wine 09/05/2013 -- 0 0
827 The Clock 09/05/2013 -- 0 0
828 A Lump of Joy 09/04/2013 -- 0 0
829 Back Door 09/04/2013 -- 0 0
830 On An Autumn Day 09/03/2013 10.0 1 0
831 Choice (Henry's Island 2) 09/02/2013 -- 0 0
832 In that Corner 08/31/2013 10.0 1 0
833 Boys will be Boys 08/31/2013 10.0 1 0
834 Daymares 08/30/2013 10.0 3 0
835 Riddle (10w) 08/30/2013 -- 0 0
836 Irony (10w) 08/30/2013 -- 0 0
837 If he can do it 08/29/2013 10.0 1 0
838 When Can We? 08/29/2013 -- 0 0
839 Carpenter 08/28/2013 10.0 1 0
840 Why Bother (10w) 08/28/2013 -- 0 0
841 Night Heron 08/28/2013 -- 0 0
842 Cocooned 08/28/2013 -- 0 0
843 A Poet 08/27/2013 10.0 2 0
844 Wild Hunt 08/26/2013 -- 0 0
845 Hunger (10w) 08/26/2013 -- 0 0
846 Rewind 08/26/2013 10.0 1 0
847 Deceit 08/25/2013 -- 0 1
848 Contrasts (10w) 08/24/2013 10.0 1 0
849 Listen (10w) 08/24/2013 -- 0 0
850 Day Night (10w) 08/24/2013 10.0 1 0
851 Bone Colored Moonlight 08/24/2013 -- 0 0
852 Wide Eyed 08/23/2013 10.0 2 0
853 Identity 08/22/2013 -- 0 0
854 Art of Love 08/22/2013 -- 0 0
855 Dark Hollow 08/21/2013 -- 0 0
856 Faith's Prisoner 08/20/2013 10.0 2 1
857 Love Is Made That Way 08/19/2013 10.0 2 0
858 Having A Zoo 08/19/2013 10.0 2 0
859 Time Management (10w) 08/18/2013 10.0 1 0
860 Love (14w) 08/17/2013 10.0 2 0
861 In Many Faces 08/17/2013 10.0 2 1
862 Frost's Woods Revisited 08/17/2013 10.0 2 0
863 Dilemma 08/16/2013 10.0 1 0
864 City Bred 08/16/2013 10.0 1 0
865 Mystic Monks 08/16/2013 10.0 1 0
866 Miracles 08/15/2013 10.0 2 0
867 Poetry in Motion 08/14/2013 10.0 1 0
868 Conceal (8w) 08/14/2013 -- 0 0
869 Destiny (10w) 08/14/2013 -- 0 0
870 Companion 08/14/2013 10.0 1 0
871 Firefly 08/14/2013 7.0 1 0
872 Cats & Mouse 08/13/2013 -- 0 0
873 Transition 08/13/2013 10.0 1 0
874 Here Is Where 08/13/2013 -- 0 0
875 The Rickshaw Puller 08/12/2013 10.0 1 0
876 7 Days 08/11/2013 10.0 1 0
877 Gone but still there 08/11/2013 10.0 1 0
878 Budgie 08/11/2013 -- 0 0
879 Insomnia (10w) 08/10/2013 -- 0 0
880 The Shining Lamp 08/09/2013 -- 0 0
881 Ecstasy 08/09/2013 -- 0 0
882 Empty 08/09/2013 -- 0 0
883 Monsoon Delight 08/08/2013 8.5 2 0
884 I Do 08/08/2013 -- 0 0
885 Trust (8w) 08/07/2013 -- 0 0
886 Escape (10w) 08/07/2013 -- 0 0
887 Dread (10w) 08/07/2013 -- 0 0
888 Silken Moment 08/07/2013 -- 0 0
889 Showpiece 08/06/2013 -- 0 0
890 Pride of Place 08/06/2013 -- 0 0
891 When You Hold Captive 08/05/2013 10.0 1 0
892 On a Lifeless World 08/03/2013 10.0 2 0
893 Devil's Job 08/02/2013 5.0 1 0
894 Girl With The Blue Umbrella 08/02/2013 -- 0 0
895 You Know What I Mean 08/01/2013 9.0 1 0
896 Another Night was Spent 08/01/2013 10.0 1 0
897 Buddy 07/31/2013 10.0 1 0
898 Why (10w) 07/30/2013 -- 0 0
899 Her Beau 07/30/2013 10.0 2 0
900 When Awake and in Sleep 07/30/2013 -- 0 0
901 The Boat and the River 07/29/2013 10.0 1 0
902 Saplings (10w) 07/29/2013 -- 0 0
903 Night Witch 07/29/2013 9.0 1 0
904 The Ugly, the Bad and the Good 07/29/2013 -- 0 0
905 Salvation 07/27/2013 10.0 5 0
906 Gadgets (10w) 07/27/2013 -- 0 0
907 God Got On The Way 07/27/2013 10.0 1 0
908 Can You? (8w) 07/26/2013 10.0 2 0
909 Where The Hearts Only Know To Give 07/26/2013 10.0 1 0
910 Long and Short (6w) 07/25/2013 -- 0 0
911 It Comes without a Cause 07/25/2013 9.5 2 0
912 My Mystery Woman 07/24/2013 10.0 2 0
913 Selling Razor on the Street 07/24/2013 10.0 1 0
914 Carrot & Stick 07/24/2013 -- 0 0
915 Saving Grace 07/24/2013 -- 0 0
916 In the Garden of Eden 07/23/2013 -- 0 0
917 Simple Words 07/23/2013 -- 0 0
918 Mates by Chance 07/22/2013 -- 0 0
919 Despair (10w) 07/22/2013 -- 0 0
920 Don't Ever Go to the Zoo 07/22/2013 -- 0 0
921 Rhymes (10w) 07/20/2013 -- 0 0
922 Envy Him Not 07/20/2013 8.0 1 0
923 True Wit (5w) 07/19/2013 -- 0 0
924 Solace (6w) 07/19/2013 -- 0 0
925 Password (10w) 07/19/2013 -- 0 0
926 First Love Forever Lasts 07/19/2013 -- 0 1
927 Night Trek 07/18/2013 9.0 1 0
928 Shoeshiner 07/18/2013 10.0 1 0
929 5 Minutes 07/17/2013 9.5 2 0
930 Captivity (10w) 07/17/2013 -- 0 0
931 Hengloo 07/17/2013 -- 0 0
932 Cats & Dogs 07/16/2013 9.5 2 0
933 Alone in the Rain 07/16/2013 10.0 1 0
934 Divide 07/16/2013 7.0 1 0
935 Free Will 07/15/2013 10.0 1 0
936 Peace 07/15/2013 6.0 1 0
937 Belief & Non-Belief 07/15/2013 -- 0 0
938 Fate Of A Bard 07/15/2013 -- 0 0
939 Love: A Brief 07/15/2013 -- 0 0
940 A Family in the Marsh 07/15/2013 -- 0 0
941 Spread The Colors 07/13/2013 10.0 1 0
942 Real Story 07/12/2013 -- 0 0
943 The Lady by the Window 07/12/2013 -- 0 0
944 Jackdaws & A Raven (10w) 07/11/2013 -- 0 0
945 On the Prayer's Path 07/11/2013 -- 0 0
946 Carrion Feeder 07/11/2013 -- 0 0
947 Nirvana 07/11/2013 -- 0 0
948 Salvation (8w) 07/10/2013 -- 0 0
949 A Vow I Can't Keep 07/10/2013 -- 0 0
950 Retreat from Poetry 07/10/2013 9.5 2 0
951 Bubbles 07/09/2013 -- 0 0
952 Sentinel 07/09/2013 8.0 1 0
953 Phantom Bus 07/09/2013 -- 0 0
954 Left Out 07/09/2013 10.0 1 0
955 Chariot 07/09/2013 8.0 1 0
956 A Dumb Wish 07/08/2013 -- 0 0
957 Ephemeral 07/08/2013 -- 0 0
958 City Sky 07/06/2013 9.0 3 0
959 As They See Me 07/06/2013 -- 0 0
960 Independence Day 07/06/2013 -- 0 1
961 Cumulonimbus 07/06/2013 -- 0 0
962 Paradox (7w) 07/04/2013 -- 0 0
963 Ms Lovepeace 07/03/2013 -- 0 0
964 Outing Into Darkness 07/03/2013 8.0 1 0
965 Fate (9w) 07/03/2013 9.0 1 0
966 A Poet I Found 07/02/2013 10.0 1 0
967 Comeback 07/02/2013 -- 0 0
968 When Came The Mailman 07/02/2013 10.0 2 0
969 The First Dot 07/01/2013 -- 0 0
970 Gateman 06/28/2013 9.5 2 0
971 Injustice to Women 06/27/2013 -- 0 0
972 If I Could Be Invisible 06/27/2013 -- 0 0
973 Be the Knight 06/26/2013 -- 0 0
974 Paying A Friend 06/25/2013 -- 0 0
975 Maya 06/25/2013 -- 0 0
976 Perdition 06/24/2013 -- 0 0
977 Little You Can Do 06/24/2013 -- 0 0
978 A Turtle In My Stomach 06/24/2013 -- 0 0
979 Half Moon 06/24/2013 -- 0 0
980 The Woman I romanticize 06/22/2013 10.0 1 0
981 2 Squirrels 06/20/2013 10.0 1 1
982 The Haunting Smell 06/20/2013 -- 0 0
983 Hope We Adore 06/19/2013 -- 0 0
984 Our Deal With The Devil 06/19/2013 -- 0 0
985 Pelican: A Nonsense Rhyme 06/18/2013 10.0 1 0
986 Magic Tune 06/18/2013 -- 0 0
987 If A Mail Could Do It 06/17/2013 -- 0 0
988 The Innocence In Your Eyes 06/17/2013 8.5 2 0
989 Separation 06/15/2013 -- 0 0
990 Unlike Her Man 06/14/2013 -- 0 0
991 She Won't Bear with My Silence 06/14/2013 -- 0 0
992 Darjeeling 06/14/2013 -- 0 0
993 The Moon at Midnight 06/14/2013 -- 0 0
994 Love Died Unknown 06/14/2013 -- 0 0
995 Raw and Rude 06/12/2013 -- 0 0
996 Palmist 06/12/2013 -- 0 0
997 Can't Make It 06/11/2013 6.0 1 0
998 Candy 06/11/2013 -- 0 0
999 Cocktail of Smell 06/10/2013 -- 0 0
1,000 Little Mighty Things 06/10/2013 -- 0 0
1,001 Umbrella 06/10/2013 -- 0 0
1,002 10 Kittens 06/08/2013 9.0 5 0
1,003 Dormant 06/07/2013 -- 0 0
1,004 My Shadow 06/06/2013 -- 0 0
1,005 Aquarium 06/06/2013 -- 0 0
1,006 Labor 06/05/2013 -- 0 0
1,007 Aroma of Money 06/05/2013 -- 0 0
1,008 Hell's Hearth 06/05/2013 -- 0 0
1,009 The Loft 06/04/2013 9.0 1 0
1,010 The Great Escape 06/04/2013 10.0 1 0
1,011 Shadows of the Future 06/03/2013 -- 0 0
1,012 The River and the Sea 06/03/2013 -- 0 0
1,013 Life is a Wonder 06/03/2013 -- 0 0
1,014 Kingfisher 05/31/2013 -- 0 0
1,015 The Older You Got 05/31/2013 -- 0 0
1,016 Sounds Of The Sea 05/30/2013 -- 0 0
1,017 Topsy Turvy 05/29/2013 -- 0 0
1,018 In the Night's Shadow 05/29/2013 -- 0 0
1,019 In the Land of the Blind 05/29/2013 -- 0 0
1,020 On the Other Side 05/28/2013 -- 0 0
1,021 Caught in the Act 05/28/2013 -- 0 0
1,022 Frogs are Gone 05/28/2013 -- 0 0
1,023 Nowhere Man 05/27/2013 -- 0 0
1,024 Blue Mountain 05/27/2013 -- 0 0
1,025 Do You Still? 05/27/2013 -- 0 0
1,026 Awhile In The Woods 05/24/2013 -- 0 0
1,027 Lost In The Din 05/24/2013 -- 0 0
1,028 See Off 05/24/2013 -- 0 0
1,029 I love the way she loves me 05/23/2013 -- 0 0
1,030 Guavo 05/23/2013 -- 0 0
1,031 Flavors of Dream 05/23/2013 -- 0 0
1,032 The Morning Messenger 05/22/2013 -- 0 0
1,033 Captive 05/22/2013 -- 0 0
1,034 The Other Man 05/22/2013 -- 0 0
1,035 A Seed of Romance 05/22/2013 9.0 2 0
1,036 Waiting 05/21/2013 -- 0 0
1,037 Everest 05/21/2013 -- 0 0
1,038 Being A Father 05/18/2013 -- 0 0
1,039 Top Hill 05/16/2013 -- 0 0
1,040 Not A Word 05/15/2013 -- 0 0
1,041 Someone Else's 05/15/2013 -- 0 0
1,042 Girl Of The Soil 05/14/2013 -- 0 0
1,043 A Gravel on the Beach 05/14/2013 -- 0 0
1,044 Rain brought us together 05/13/2013 -- 0 0
1,045 A Trophy In Your Showcase 05/13/2013 -- 0 0
1,046 The Salesman Returns 05/11/2013 -- 0 0
1,047 The Unhappy King 05/10/2013 -- 0 0
1,048 A Village Far Away 05/09/2013 -- 0 0
1,049 On the Precipice 05/09/2013 -- 0 0
1,050 Rulers and Their Rules 05/08/2013 -- 0 0
1,051 We rode the tempest 05/07/2013 -- 0 0
1,052 Ghosts in a House 05/06/2013 -- 0 0
1,053 The Omnipotent 05/06/2013 -- 0 0
1,054 Familiar Faces 05/03/2013 -- 0 0
1,055 The Traveller 05/02/2013 -- 0 0
1,056 Parents and Children 05/02/2013 -- 0 0
1,057 The Dead Warrior 05/02/2013 -- 0 0
1,058 In the Classroom 04/30/2013 -- 0 0
1,059 Grow up not, Child 04/27/2013 -- 0 0
1,060 Kisses In The Air 04/26/2013 -- 0 0
1,061 Flesh Hunter 04/24/2013 -- 0 0
1,062 Between The Last and The Next 04/23/2013 -- 0 0
1,063 Alphabets Of Life 04/23/2013 6.0 1 0
1,064 Seconds Hand 04/22/2013 -- 0 0
1,065 Bakers 04/20/2013 -- 0 0
1,066 One Little Footstep 04/19/2013 -- 0 0
1,067 The Sea and She 04/19/2013 -- 0 0
1,068 Cradled in her Eyes 04/18/2013 -- 0 0
1,069 A Successful Man 04/17/2013 -- 0 0
1,070 Mechanical Dolls 04/16/2013 -- 0 0
1,071 Rainbow Bridge 04/16/2013 -- 0 0
1,072 Hermit Crab 04/16/2013 -- 0 0
1,073 Hangman 04/13/2013 -- 0 0
1,074 A Note of Gratitude 04/13/2013 -- 0 0
1,075 Marionette and the Bees 04/12/2013 -- 0 0
1,076 My Mind Reader 04/12/2013 -- 0 0
1,077 Two Little Hearts 04/12/2013 -- 0 0
1,078 The Unsolved Case of Mr. Steve 04/11/2013 -- 0 0
1,079 When Memories Were Not Born 04/11/2013 -- 0 0
1,080 Henry's Island 04/11/2013 -- 0 0
1,081 Feathered Guests 04/10/2013 10.0 1 0
1,082 With Your Ex-Lover: Chance 2 04/09/2013 -- 0 0
1,083 Coppersmith Barbet 04/08/2013 -- 0 0
1,084 Leaves Atop the Trees 04/08/2013 -- 0 0
1,085 Drunken Dream 04/06/2013 -- 0 0
1,086 The Philosopher and the Mouse 04/05/2013 -- 0 0
1,087 Your Face in the Moon 04/05/2013 -- 0 0
1,088 The Ugly Line 04/04/2013 -- 0 0
1,089 5 Acres of Night 04/04/2013 -- 0 0
1,090 Casuarina 04/03/2013 -- 0 0
1,091 Dining with the Devil 03/30/2013 -- 0 0
1,092 The Passage 03/30/2013 -- 0 0
1,093 The Young Man From Spain 03/29/2013 -- 0 0
1,094 Parrot In A City 03/29/2013 10.0 1 0
1,095 The Gun in My Hand 03/29/2013 -- 0 0
1,096 A Lifelong Friend 03/29/2013 10.0 1 0
1,097 Open Your Door 03/26/2013 -- 0 0
1,098 If the Worst Comes to the Worst 03/25/2013 -- 0 0
1,099 My Name is Bond 03/23/2013 -- 0 0
1,100 Back to Yesterday 03/21/2013 -- 0 0
1,101 Strength of Hope 03/21/2013 -- 0 0
1,102 Love's First Line 03/20/2013 -- 0 0
1,103 An Easy-to-Get Kill 03/19/2013 -- 0 0
1,104 With The Child Always 03/19/2013 -- 0 0
1,105 The Rebel Lives On 03/16/2013 -- 0 0
1,106 The Child Is Sinking 03/15/2013 -- 0 0
1,107 A Moment With The Magpie-Robin 03/15/2013 -- 0 0
1,108 In the Forest with my Father 03/14/2013 -- 0 0
1,109 A Mute Witness 03/13/2013 -- 0 0
1,110 Reach The Stars 03/13/2013 -- 0 0
1,111 Flames of the Forest 03/13/2013 -- 0 0
1,112 Robot 03/12/2013 -- 0 0
1,113 Birth Of A Day 03/11/2013 -- 0 0
1,114 The Indomitable 03/11/2013 -- 0 0
1,115 Our Image 03/09/2013 -- 0 0
1,116 Reunion 03/08/2013 -- 0 0
1,117 Oh Boatman 03/07/2013 -- 0 0
1,118 Lest We Forget Them 03/05/2013 -- 0 0
1,119 Love Is Our Weapon 03/05/2013 -- 0 0
1,120 Road to Atonement 03/04/2013 -- 0 0
1,121 Album 03/02/2013 -- 0 0
1,122 Green Island 03/01/2013 -- 0 0
1,123 Shut and Open 02/27/2013 -- 0 0
1,124 Love Station 02/25/2013 -- 0 0
1,125 The Moon On The River 02/25/2013 -- 0 0
1,126 Mind of a Poet 02/22/2013 10.0 1 0
1,127 Where You Belong 02/21/2013 -- 0 0
1,128 The World for Yourself 02/18/2013 -- 0 0
1,129 3 Horses 02/14/2013 -- 0 0
1,130 Everyday Of The Year 02/13/2013 10.0 1 0
1,131 Once a Mother 02/11/2013 -- 0 0
1,132 Left to Die 02/11/2013 -- 0 0
1,133 Love Letter 02/07/2013 8.0 1 0
1,134 Silent Fountain 02/06/2013 -- 0 0
1,135 It Pays To Be Hurt 02/05/2013 -- 0 0
1,136 A Relic On The Wall 02/05/2013 -- 0 0
1,137 Revival 02/04/2013 -- 0 0
1,138 The Dogged Sunrise 02/01/2013 -- 0 0
1,139 Before they grow up 02/01/2013 -- 0 0
1,140 The Extraordinary 01/30/2013 6.0 1 0
1,141 The Happiness Within 01/29/2013 -- 0 0
1,142 The Matchstick 01/29/2013 -- 0 0
1,143 Can't Steal Your Heart 01/25/2013 -- 0 0
1,144 The Chain 01/21/2013 -- 0 0
1,145 Let Me Feel Your Love 01/18/2013 -- 0 0
1,146 What I Want To Be 01/18/2013 -- 0 0
1,147 Silence of Shame 01/16/2013 -- 0 0
1,148 So Said Voltaire 01/16/2013 -- 0 0
1,149 Cycle of Madness 01/14/2013 -- 0 0
1,150 I Couldn't See You 01/12/2013 -- 0 0
1,151 Bronzed Drongo 01/09/2013 -- 0 0
1,152 On The Life's Way 01/08/2013 -- 0 0
1,153 Your City 01/08/2013 -- 0 0
1,154 Sacrilege 01/08/2013 -- 0 0
1,155 Creator 01/07/2013 10.0 1 0
1,156 A Lost Game 01/05/2013 -- 0 0
1,157 For Your Love 01/05/2013 -- 0 0
1,158 One Good Work 01/04/2013 -- 0 0
1,159 Dreams do not let you sleep 01/03/2013 -- 0 0
1,160 In Love 01/02/2013 -- 0 0
1,161 New Year Sunshine & Shadows 12/31/2012 10.0 1 0
1,162 Killing Is No Answer 12/31/2012 -- 0 0
1,163 Another Year of Life 12/26/2012 -- 0 0
1,164 Earth post 21/12 12/21/2012 10.0 1 0
1,165 Mourning the Void 12/20/2012 10.0 1 0
1,166 Mogli 12/19/2012 -- 0 0
1,167 Quest 12/18/2012 -- 0 0
1,168 You Lost It Long Ago 12/18/2012 -- 0 0
1,169 Fantasies 12/17/2012 -- 0 0
1,170 Where is the Enemy? 12/17/2012 -- 0 0
1,171 Corpse 12/14/2012 -- 0 0
1,172 If You Miss the Bus 12/14/2012 -- 0 1
1,173 Secret of my Pride 12/13/2012 -- 0 0
1,174 Shadows of Sunset 12/13/2012 10.0 1 0
1,175 A Piece of History 12/11/2012 -- 0 0
1,176 The Only Truth 12/04/2012 -- 0 0
1,177 The Night Says 12/04/2012 -- 0 0
1,178 Life's Pleasure 12/04/2012 -- 0 0
1,179 Dreaming Home 12/04/2012 -- 0 0
1,180 A Whiff of Love 12/03/2012 -- 0 0
1,181 Harvest 11/28/2012 -- 0 0
1,182 Calendar 11/28/2012 -- 0 0
1,183 Sentinel of the Dark 11/27/2012 -- 0 0
1,184 Passing Show 11/26/2012 -- 0 0
1,185 If Again 11/24/2012 -- 0 0
1,186 When I Come Back 11/21/2012 -- 0 0
1,187 When I Borrow 11/17/2012 -- 0 0
1,188 Though I'm Not As Bright 11/15/2012 -- 0 0
1,189 That's The Child 11/15/2012 -- 0 0
1,190 The Silent Zone 11/12/2012 -- 0 0
1,191 Your Vote Has Been Cast 11/09/2012 -- 0 0
1,192 To be with you 11/08/2012 -- 0 0
1,193 Love Amidst Squalor 11/06/2012 -- 0 0
1,194 The Dead Hosting Life 11/06/2012 -- 0 0
1,195 Before You Part 11/05/2012 -- 0 0
1,196 One Day You Would Know 11/04/2012 -- 0 0
1,197 Halloween Resolution 10/31/2012 -- 0 0
1,198 In Praise of Hell 10/31/2012 -- 0 0
1,199 The Night of Judgment 10/30/2012 -- 0 0
1,200 Missing Your Love 10/27/2012 -- 0 0
1,201 Buying Peace 10/26/2012 10.0 1 1
1,202 The Timeless Twig 10/26/2012 -- 0 0
1,203 Dreaming From The Dark 10/19/2012 -- 0 0
1,204 Reconstruction 10/18/2012 -- 0 0
1,205 Ripened Love 10/17/2012 -- 0 0
1,206 Moon's Wrath 10/13/2012 -- 0 0
1,207 With You Always 10/12/2012 7.0 1 0
1,208 Voyage Through The Night 10/12/2012 -- 0 0
1,209 A Magical Surprise 10/11/2012 -- 0 0
1,210 Farewell Day 10/10/2012 -- 0 0
1,211 Surviving Separation 10/08/2012 -- 0 0
1,212 A Walk In The Jungle 10/05/2012 -- 0 0
1,213 We Need to Die Once 10/03/2012 -- 0 0
1,214 A Blissful Age 09/29/2012 -- 0 0
1,215 The Spell 09/28/2012 -- 0 0
1,216 The Evening I Ceased to be Angry 09/26/2012 10.0 1 0
1,217 The Cycle 09/25/2012 -- 0 0
1,218 Gifted a Day 09/22/2012 -- 0 0
1,219 Final Celebration 09/21/2012 -- 0 0
1,220 Night's Magic Wand 09/19/2012 8.0 1 0
1,221 You Needn't Tell 09/19/2012 -- 0 0
1,222 Sunshine Again 09/19/2012 -- 0 0
1,223 No Second Start 09/19/2012 -- 0 0
1,224 Till I'm Free 09/19/2012 -- 0 0
1,225 Tomorrow is a mystery 09/19/2012 -- 0 0
1,226 Holed Up 09/19/2012 7.0 1 0
1,227 The Day Is Mine 09/19/2012 -- 0 0
1,228 Precious Little 09/19/2012 -- 0 0
1,229 The Enduring 09/14/2012 -- 0 0
1,230 The Night Flyer 09/12/2012 -- 0 0
1,231 Orphaned 09/03/2012 -- 0 0
1,232 Combat with Enemies 09/01/2012 -- 0 0
1,233 Farewell to the Day 08/29/2012 -- 0 0
1,234 Here For Today 08/28/2012 7.0 1 0
1,235 Visitors Of The Dark 08/23/2012 -- 0 0
1,236 Hungry Rebels 08/23/2012 -- 0 0
1,237 Bonded Beauty 08/22/2012 -- 0 0
1,238 Remnant 08/22/2012 -- 0 0
1,239 Long Nights of Rain 08/18/2012 10.0 1 0
1,240 This Day Next Year 08/18/2012 -- 0 0
1,241 Guarding Castle In The Sands 08/17/2012 -- 0 0
1,242 What is it? 08/16/2012 -- 0 0
1,243 Worshipping Goodness 08/13/2012 -- 0 0
1,244 Smell of Pollen 08/10/2012 -- 0 0
1,245 A Mundane Tale 08/08/2012 -- 0 0
1,246 Lust 08/07/2012 -- 0 0
1,247 Why The Tears I Shed? 07/31/2012 -- 0 0
1,248 In Times Good And Bad 07/23/2012 -- 0 0
1,249 Born Again 07/23/2012 -- 0 0
1,250 Asylum 07/19/2012 -- 0 0
1,251 A Woman 07/19/2012 -- 0 0
1,252 Faces of Monsoon 07/16/2012 -- 0 0
1,253 Alien 07/13/2012 10.0 1 0
1,254 End of Bondage 07/10/2012 -- 0 0
1,255 Journey Forward 07/05/2012 -- 0 0
1,256 Bigford Bunny 07/03/2012 -- 0 0
1,257 Reliving a Time 06/30/2012 -- 0 0
1,258 Rain After Summer 06/30/2012 -- 0 0
1,259 Good Times Will Be Back 06/29/2012 7.0 1 0
1,260 Return of Rain 06/21/2012 -- 0 0
1,261 Immortal 06/21/2012 10.0 1 0
1,262 Before I Go with the Night 06/20/2012 5.0 1 0
1,263 Another Yearning Heart 06/18/2012 -- 0 0
1,264 Through Nights of Thunder 06/18/2012 -- 0 0
1,265 Let my heart pour like rain 05/30/2012 8.0 1 1
1,266 God's Child 05/28/2012 -- 0 0
1,267 Death On The Door 05/26/2012 -- 0 0
1,268 If I May Live Like A Bird 05/23/2012 -- 0 0
1,269 God Will Be Back 05/23/2012 -- 0 0
1,270 Unburdened Rain 05/19/2012 -- 0 0
1,271 Leftover 05/16/2012 -- 0 0
1,272 If I could get back the lost years 05/14/2012 -- 0 0
1,273 Emerald Island 05/11/2012 -- 0 0
1,274 A Stranger in the City 05/08/2012 -- 0 0
1,275 Dummy's Life 05/02/2012 -- 0 0
1,276 A Brief Rain 04/30/2012 7.0 1 0
1,277 Sentiment 04/27/2012 -- 0 0
1,278 Tale Of A Hanging 04/25/2012 -- 0 0
1,279 Beyond War 04/23/2012 -- 0 0
1,280 No Lessons Learned 04/20/2012 -- 0 0
1,281 I Lost My Way 04/20/2012 -- 0 0
1,282 The Wilderness Within 04/18/2012 -- 0 0
1,283 Love in the Famished Land 04/18/2012 10.0 1 0
1,284 Phantom Of Youth 04/17/2012 -- 0 0
1,285 Departed 04/16/2012 -- 0 0
1,286 Be There 04/16/2012 -- 0 0
1,287 Sea's Torment 04/12/2012 -- 0 0
1,288 I know you are there 04/12/2012 -- 0 0
1,289 Knowing Your Heart 04/11/2012 -- 0 0
1,290 From the dust of time 04/09/2012 -- 0 0
1,291 Shadows of Survival 04/07/2012 -- 0 0
1,292 Once And Once More 04/06/2012 -- 0 0
1,293 Trap the Mouse 04/05/2012 -- 0 0
1,294 Oldhood 04/04/2012 -- 0 0
1,295 A Bloodless War 04/04/2012 10.0 1 0
1,296 Fighting The Enemy 04/02/2012 -- 0 0
1,297 All for Myself 03/31/2012 -- 0 0
1,298 Only A Little 03/31/2012 -- 0 0
1,299 Doomed 03/30/2012 -- 0 0
1,300 With The Coming Of Night 03/29/2012 -- 0 0
1,301 A Dirge For Transience 03/29/2012 -- 0 0
1,302 Kissing Your Shadow 03/29/2012 -- 0 0
1,303 Mind's Fossil 03/23/2012 -- 0 0
1,304 Lumps Of Blood 03/22/2012 -- 0 0
1,305 Virtue Of Insanity 03/21/2012 -- 0 0
1,306 Finding Nectar 03/17/2012 -- 0 0
1,307 I Have To Leave 03/17/2012 -- 0 0
1,308 1924: A Love Story 03/17/2012 9.3 7 0
1,309 This Side Of The River 03/16/2012 10.0 1 0
1,310 A Just God 03/16/2012 -- 0 0
1,311 Love To Be Vulnerable 03/16/2012 -- 0 0
1,312 Gone are the Keys 03/15/2012 -- 0 0
1,313 Outgrowing Childhood 03/15/2012 -- 0 0
1,314 Shaping Destiny 03/14/2012 -- 0 0
1,315 Woman's Story 03/13/2012 -- 0 0
1,316 My Dreams Now 03/13/2012 -- 0 0
1,317 Timeless 03/12/2012 -- 0 0
1,318 Heartbreak 03/10/2012 8.0 1 0
1,319 If You Know 03/09/2012 5.0 1 0
1,320 An Ever Open Door 03/07/2012 10.0 1 0
1,321 Autumn and I 03/06/2012 8.0 1 0
1,322 I Didn't See 03/05/2012 -- 0 0
1,323 I Don't Need A Drink 03/05/2012 -- 0 0
1,324 The Wonder That Is Love 03/05/2012 -- 0 0
1,325 Sharing The Earth 03/03/2012 10.0 1 0
1,326 The Sunshine Spot 03/02/2012 -- 0 0
1,327 Beyond The Nightmare 03/02/2012 -- 0 0
1,328 My Tears Softly Land 03/02/2012 3.0 1 0
1,329 Only She Can 03/02/2012 -- 0 0
1,330 You Aren't Sure 03/01/2012 -- 0 0
1,331 Remembering The Poet 03/01/2012 -- 0 0
1,332 A Note for Me 02/29/2012 -- 0 0
1,333 A Little Good 02/27/2012 -- 0 0
1,334 Chaos 02/27/2012 -- 0 0
1,335 There Won't Be Another Like Me 02/24/2012 -- 0 0
1,336 Best Friend Around 02/23/2012 -- 0 0
1,337 Breaking A Heart 02/23/2012 -- 0 0
1,338 Pearl From A Dream 02/22/2012 -- 0 0
1,339 More Is Less 02/21/2012 -- 0 0
1,340 Colors Of Night 02/21/2012 -- 0 0
1,341 Mourning 02/20/2012 -- 0 0
1,342 Dream Of A New Day 02/20/2012 -- 0 0
1,343 Sunshine Waiting 02/18/2012 -- 0 1
1,344 Smell of Romance 02/16/2012 -- 0 0
1,345 Past Valentines 02/14/2012 -- 0 0
1,346 Without Waiting 02/13/2012 -- 0 0
1,347 Echoes Of Moments Together 02/13/2012 -- 0 0
1,348 End Of A Search 02/09/2012 -- 0 0
1,349 Unforgiving 02/09/2012 -- 0 0
1,350 The Best Place For Truth 02/08/2012 -- 0 0
1,351 Relic of a Twinkle 02/04/2012 -- 0 0
1,352 A Journey 02/02/2012 -- 0 0
1,353 Because I got you easy 02/01/2012 10.0 1 0
1,354 All Along There 01/31/2012 10.0 1 0
1,355 Striding Into Childhood 01/27/2012 -- 0 0
1,356 The Evening Stillness 01/25/2012 -- 0 0
1,357 Still The Stranger 01/25/2012 -- 0 0
1,358 No Escape From Your Memories 01/25/2012 -- 0 1
1,359 The Soil's Tears 01/24/2012 -- 0 0
1,360 Hug Land 01/21/2012 -- 0 0
1,361 Her Coming of Age 01/19/2012 -- 0 0
1,362 Coming Of Rain 01/18/2012 -- 0 0
1,363 Thank God 01/13/2012 -- 0 0
1,364 A New Style 01/12/2012 -- 0 0
1,365 The Fire 01/11/2012 -- 0 0
1,366 The World Will Move On 01/09/2012 -- 0 0
1,367 How To Weave A Dream 01/09/2012 8.0 1 0
1,368 Cosmic Theater 01/06/2012 -- 0 0
1,369 Not Seeing You For Long 12/30/2011 -- 0 0
1,370 An Escape into Hope 12/29/2011 10.0 1 1
1,371 A Flower of Cactus 12/27/2011 10.0 2 2
1,372 Adieu Old Time 12/27/2011 -- 0 0
1,373 Life's Precious Things 12/23/2011 -- 0 0
1,374 You Don't Read My Mail 12/22/2011 -- 0 0
1,375 The Mist Will Clear 12/21/2011 -- 0 0
1,376 An Apparition 12/19/2011 -- 0 0
1,377 A Thought For Stray Dogs 12/19/2011 9.0 1 2
1,378 The Pyre 12/13/2011 -- 0 0
1,379 Shaving Glass 12/12/2011 -- 0 0
1,380 Lonely Mouse 12/10/2011 -- 0 0
1,381 Bared and Alone 12/10/2011 10.0 1 1
1,382 Diary Of A Day 12/09/2011 -- 0 0
1,383 Dignity 12/08/2011 -- 0 0
1,384 When you are no more 12/03/2011 -- 0 0
1,385 Not the Same Guy 12/02/2011 -- 0 0
1,386 Early Sunset 11/30/2011 -- 0 0
1,387 Silence Of Your Heart 11/30/2011 -- 0 1
1,388 Cubicle 11/29/2011 -- 0 0
1,389 Misty Island 11/29/2011 -- 0 0
1,390 Merciless Reflections 11/26/2011 -- 0 0
1,391 Spring Will Come 11/23/2011 10.0 1 1
1,392 A Moment Of Love 11/21/2011 10.0 1 0
1,393 I Milked The Moon 11/21/2011 -- 0 0
1,394 Smell Of Love 11/21/2011 -- 0 0
1,395 Bethlehem Star 11/15/2011 -- 0 0
1,396 The Dog Wonders 11/02/2011 -- 0 0
1,397 Don't Lose Your Smiles 11/02/2011 -- 0 0
1,398 The Other Side Of Moon 10/28/2011 -- 0 0
1,399 Epitaph For A Poet 10/26/2011 -- 0 0
1,400 You Are Immortal 10/25/2011 -- 0 0
1,401 Final Tryst 10/24/2011 -- 0 0
1,402 Embers of Memories 10/22/2011 -- 0 0
1,403 Frozen Frames 10/20/2011 -- 0 0
1,404 Passing by Mother's Love 10/19/2011 -- 0 0
1,405 Defy Greed 10/18/2011 -- 0 0
1,406 The Going Back 10/18/2011 -- 0 0
1,407 Decent Burial 10/17/2011 -- 0 0
1,408 Your Eyes Are The Last Place 10/13/2011 -- 0 0
1,409 5 O'clock Dream 10/01/2011 9.0 2 1
1,410 Arrival of the Newborn 09/30/2011 -- 0 0
1,411 Wealth You Don't Treasure 09/29/2011 -- 0 0
1,412 Live the Precious Now 09/26/2011 -- 0 0
1,413 Rickety Chair 09/24/2011 -- 0 0
1,414 God's Ire 09/23/2011 -- 0 0
1,415 Wings are waiting 09/22/2011 -- 0 0
1,416 Traffic Island Cop 09/21/2011 -- 0 0
1,417 The Lost Carnival 09/20/2011 -- 0 0
1,418 Before the Bard dies 09/17/2011 -- 0 0
1,419 Dreams are no escape 09/16/2011 -- 0 0
1,420 Prisoner Of The Dark 09/14/2011 -- 0 0
1,421 Childhood Once More 09/12/2011 -- 0 1
1,422 Coming back: post 11/9/2001 09/10/2011 -- 0 0
1,423 I Want A Vacation 09/09/2011 -- 0 0
1,424 Mother Eternal 09/06/2011 -- 0 0
1,425 The Graveyard in the Woods 09/05/2011 -- 0 0
1,426 Alone with the Sky 09/03/2011 -- 0 0
1,427 Abigail 09/02/2011 -- 0 0
1,428 Belief Comes Easy 08/31/2011 -- 0 0
1,429 I Yearn for a Longer Night 08/29/2011 -- 0 0
1,430 The Departing Wish 08/24/2011 -- 0 0
1,431 Living is All About 08/22/2011 -- 0 0
1,432 Coroner's Day 08/19/2011 -- 0 0
1,433 The Last Journey Home 08/16/2011 -- 0 0
1,434 The Invitation 08/16/2011 -- 0 0
1,435 In Dream or out of It 08/08/2011 -- 0 0
1,436 Dawn of Life 08/03/2011 -- 0 0
1,437 The Morning After 08/01/2011 -- 0 0
1,438 Fairytale Rains 08/01/2011 -- 0 0
1,439 The street hawker 07/27/2011 -- 0 0
1,440 Reality Is Aloof 07/27/2011 -- 0 0
1,441 Old Books 07/27/2011 -- 0 0
1,442 The Moon Outside 07/27/2011 -- 0 0
1,443 Keep Some Space 07/27/2011 -- 0 0
1,444 Are You Missing Something? 07/27/2011 -- 0 0
1,445 Love in Disguise 07/27/2011 -- 0 0
1,446 Make Time to Be Alone 07/27/2011 -- 0 0
1,447 The Child in Us 07/27/2011 -- 0 1
1,448 Love Me Half Ounce 07/26/2011 7.0 1 0
1,449 Rooftop 07/26/2011 -- 0 0
1,450 Run boy run! 07/26/2011 -- 0 0
1,451 It's You 07/26/2011 -- 0 0
1,452 Taking a Walk 07/26/2011 6.0 1 0
1,453 My Child 07/26/2011 -- 0 0
1,454 Silence Is Nuisance 07/26/2011 -- 0 0
1,455 Bird's Wish 07/26/2011 -- 0 0
1,456 My Heaven Is Here 07/26/2011 -- 0 0
1,457 Earth Mover 07/26/2011 -- 0 0
1,458 Bliss 07/26/2011 -- 0 0
1,459 Never Lost 07/26/2011 -- 0 0
1,460 Music 07/26/2011 -- 0 0
1,461 Out in the Rain 07/26/2011 -- 0 0
1,462 Love Beyond End 07/26/2011 -- 0 0
1,463 The Hidden I 07/25/2011 -- 0 0
1,464 Where Nightmares Reign 07/19/2011 10.0 1 0
1,465 The Mead Was Green 07/18/2011 -- 0 0
1,466 Impermanence 07/16/2011 -- 0 0
1,467 My Dad and Mom 06/30/2011 -- 0 0
1,468 Longer than Eternity 06/28/2011 -- 0 0
1,469 Because I am not There 06/21/2011 8.0 1 0
1,470 When the Rain Stops 06/20/2011 -- 0 0
1,471 A Tale of Four Lives 06/17/2011 -- 0 0
1,472 A Blind Lane 06/16/2011 10.0 1 0
1,473 A Hollow Nothing 06/15/2011 -- 0 0
1,474 The Blood Is All Over Me 06/14/2011 -- 0 0
1,475 Everytime You Smile 06/13/2011 -- 0 0
1,476 The Taunting Silence 06/11/2011 -- 0 0
1,477 Survival 06/09/2011 7.0 1 0
1,478 Burning Hot 06/07/2011 -- 0 0
1,479 A Dark Abyss 06/07/2011 -- 0 1
1,480 A Civilized Onslaught 06/03/2011 10.0 1 0
1,481 The Bird and I 06/02/2011 -- 0 0
1,482 God who Kills 06/01/2011 -- 0 0
1,483 As If It's Last 05/30/2011 -- 0 0
1,484 The Blank Page 05/17/2011 -- 0 0
1,485 A little pause 05/04/2011 -- 0 0
1,486 I became a poet 04/22/2011 -- 0 0
1,487 Waste 04/21/2011 -- 0 0
1,488 Monsters & Angels 04/13/2011 -- 0 0
1,489 A little of me 04/06/2011 10.0 1 2
1,490 Dream Stealer 04/01/2011 -- 0 0
1,491 What's the Time 04/01/2011 -- 0 0
1,492 Spring Wind 03/30/2011 -- 0 0
1,493 Search 03/29/2011 -- 0 0
1,494 Zeus 03/22/2011 -- 0 0
1,495 Tsunami 03/11/2011 -- 0 0
1,496 Women 03/08/2011 10.0 1 0
1,497 Within 03/04/2011 -- 0 0
1,498 Blasphemy 03/03/2011 -- 0 0
1,499 Eternal 03/02/2011 -- 0 0
1,500 Ritual 02/27/2011 -- 0 0
1,501 A New Day 02/25/2011 -- 0 0
1,502 Once 02/24/2011 -- 0 0
1,503 Valentine 02/14/2011 -- 0 0
1,504 Thoughts 02/11/2011 9.0 1 0
[Hata Bildir]